Weather in Kuntugushevo

Russia / Republic of Bashkortostan     55°57′46″N   56°04′06″E
temp.,
°C
wind,
m/s
gust,
m/s
humid.,
%
clouds,
%
prec.,
mm/h
press.,
hPa
HPBL,
m
1 march, mon
mon123:00−13ne469588 0.2 1009144
02:00−15ne359475 0.0 1011101
05:00−15nne369577 0.1 1013166
08:00−16nne349680 0.1 101491
11:00−14nne349282 0.2 1016324
14:00−12n228499 0.1 1016479
17:00−11wnw3490100 0.1 1017411
20:00−16w339698 0.1 101734
2 march, tue
tue223:00−18sw349996 0.1 101759
02:00−21sw36100100 0.1 1016105
05:00−22s4999100 0.1 1015183
08:00−20s61295100 0.0 1012304
11:00−17s81494100 0.1 1009386
14:00−14ssw81493100 0.5 1005565
17:00−11ssw81391100 0.7 1003628
20:00−10s81494100 0.4 1001533
3 march, wed
wed323:00−9s81593100 1.1 999502
02:00−7s71492100 0.5 996419
05:00−4ssw61096100 1.3 996355
08:00−6wsw51095100 0.4 995345
11:00−6wsw5893100 0.6 997438
14:00−4wsw5893100 0.3 997578
17:00−3wsw6993100 0.6 998627
20:00−5wsw5995100 0.4 999383
4 march, thu
thu423:00−6wsw4896100 1.1 1000313
02:00−7wnw51094100 0.9 1000469
05:00−14w359892 1.0 100185
08:00−13wsw489789 0.1 1003216
11:00−11wsw479594 0.3 1003285
14:00−8sw6993100 0.1 1003583
17:00−6sw61091100 0.4 1002664
20:00−7ssw61294100 0.2 1001480
5 march, fri
fri523:00−7ssw81594100 1.1 999692
02:00−5ssw91695100 1.4 995831
05:00−2sw91696100 3.9 992989
08:00−1sw101695100 2.2 9901080
11:00−2w111689100 3.6 9911104
14:00−6w10158679 0.1 997966
17:00−6w8138689 0.2 1003941
20:00−9wsw51291100 0.1 1007407